Other Public Products
Issued by NWS Charleston, SC

Current Version | Previous Version | Graphics & Text | Print | Product List | Glossary On
Versions: 1 2 3 4 5 6 7 8 9 10 11 12 13 14 15 16 17 18 19 20 21 22 23 24 25 26 27 28 29 30 31 32 33 34 35 36 37 38 39 40 41 42 43 44 45 46 47 48 49 50
000 FPUS82 KCHS 201312 OPUCHS TEST...KCHS/KSAV Gateway Observations...TEST National Weather Service Charleston SC 900 AM EDT FRI APR 20 2018 NOTE: "fair" indicates few or no clouds below 12,000 feet with no significant weather and/or obstructions to visibility. SCZ050-WAZ558-NCZ071-TXZ119-213-PAZ071-DCZ001-FLZ074-172-MI076- NYZ176-178-MAZ016-IL014-TNZ027-NJZ106-GAZ044-MD014-201400- ...Gateway Observations for Charleston International... CITY SKY/WX TMP DP RH WIND PRES REMARKS Chas Airport FAIR 53 32 44 N15G25 30.31R Seattle MOCLDY 45 40 82 SE6 30.25S Charlotte FAIR 50 31 48 N6 30.37R Dallas DFW CLOUDY 51 38 60 E17G25 30.27R Dallas Love PTSUNNY 51 38 60 E14 30.29R Philladelphia FAIR 40 21 46 N22G29 30.23S WCI 30 Wash National FAIR 45 22 40 NW14G22 30.30R Baltimore FAIR 42 23 46 NW10 30.26S Miami FAIR 72 66 81 W3 30.10S Detroit FAIR 40 21 46 N6 30.46R WCI 36 Newark FAIR 42 22 44 NW22 30.15S Laguardia FAIR 40 23 50 NW22G31 30.14R WCI 30 J F K FAIR 40 23 50 NW23G32 30.15R WCI 30 Boston Logan PTSUNNY 41 26 55 NW21G31 29.97R Ft. Lauderdale FAIR 72 67 84 VRB3 30.09R Chicago O`Hare FAIR 43 24 47 N5 30.49S Chicago Midway FAIR 44 26 49 NE6 30.50S Houston Bush PTSUNNY 54 42 64 E16 30.28R Houston Hobby PTSUNNY 55 41 59 NE13 30.26R Nashville FAIR 44 35 70 NE7 30.41R Atlanta FAIR 47 32 56 E17 30.34R $$ GAZ044-118-TXZ119-213-NCZ071-DCZ001-MDZ014-506-PAZ021-071-NJZ106- NYZ176-178-MAZ106-OHZ011-021-055-MIZ076-KYZ091-ILZ014-INZ047- MNZ060-ONZ431-201400- ...Gateway Observations for Savannah International... CITY SKY/WX TMP DP RH WIND PRES REMARKS Savannah Arpt PTSUNNY 53 33 46 NE15G23 30.30R Atlanta FAIR 47 32 56 E17 30.34R Charlotte FAIR 50 31 48 N6 30.37R Dallas DFW CLOUDY 51 38 60 E17G25 30.27R Houston Bush PTSUNNY 54 42 64 E16 30.28R Wash National FAIR 45 22 40 NW14G22 30.30R Wash Dulles FAIR 42 22 44 NW13 30.30R Baltimore FAIR 42 23 46 NW10 30.26S Philadelphia FAIR 40 21 46 N22G29 30.23S WCI 30 Newark FAIR 42 22 44 NW22 30.15S Laguardia FAIR 40 23 50 NW22G31 30.14R WCI 30 J F K FAIR 40 23 50 NW23G32 30.15R WCI 30 Boston PTSUNNY 41 26 55 NW21G31 29.97R Pittsburg FAIR 35 25 66 NW12 30.37R WCI 27 Akron FAIR 38 28 67 NW9 30.40R WCI 31 Cleveland FAIR 40 28 62 NW12 30.46R WCI 33 Cincinnati FAIR 40 29 64 N5 30.46R WCI 37 Columbus FAIR 38 30 72 NW5 30.46R WCI 34 Detroit FAIR 40 21 46 N6 30.46R WCI 36 Chicago O`Hare FAIR 43 24 47 N5 30.49S Minneapolis FAIR 35 28 75 CALM 30.51R Indianapolis FAIR 41 21 44 NE7 30.49R Toronto Canada MOSUNNY 34 19 55 N21G26 30.34R WCI 22 $$

USA.gov is the U.S. government's official web portal to all federal, state and local government web resources and services.